EW4399 Weather Reports


time (UTC)temp
C
wind
direction
speed
KPH
gust
KPH
rain 1hr
cm
rain 24hr
cm
rain mn
cm
humidity
%
barometer
mb
20260508023030 6 210 0.0 3.2 0.00 2.84 2.84 96 1001.9
20260508021528 6 206 1.6 8.0 0.00 2.84 2.84 96 1001.8
20260508020027 6 241 3.2 8.0 0.00 2.84 2.84 96 1002.0
20260508014526 6 192 6.4 9.7 0.00 2.84 2.84 96 1002.1
20260508013024 6 166 3.2 8.0 0.00 2.84 2.84 96 1002.0
20260508011529 6 189 1.6 9.7 0.00 2.84 2.84 96 1001.8
20260508010021 6 223 4.8 8.0 0.00 2.84 2.84 96 1001.9
20260508004536 6 191 0.0 9.7 0.00 2.84 2.84 96 1002.4
20260508003018 6 223 3.2 9.7 0.00 2.84 2.84 96 1002.5
20260508001530 6 215 1.6 9.7 0.00 2.84 2.84 96 1002.3
20260508000016 7 234 4.8 11.3 0.00 2.84 2.84 96 1002.3
20260507234516 7 200 4.8 14.5 0.05 2.84 2.84 96 1002.3
20260507233014 7 229 6.4 16.1 0.15 2.84 2.84 96 1002.2
20260507231512 7 157 3.2 19.3 0.23 2.84 2.84 96 1002.5
20260507230011 7 175 9.7 19.3 0.36 2.84 2.84 96 1002.7
20260507224512 7 153 4.8 17.7 0.43 2.79 2.79 96 1002.9
20260507223010 7 184 4.8 14.5 0.51 2.72 2.72 96 1002.8
20260507221507 7 173 9.7 19.3 0.56 2.62 2.62 96 1002.8
20260507220011 8 182 6.4 14.5 0.61 2.49 2.49 96 1003.1
20260507214507 8 219 3.2 19.3 0.66 2.36 2.36 96 1003.4
20260507213006 8 125 8.0 14.5 0.69 2.21 2.21 96 1003.0
20260507211506 8 105 9.7 16.1 0.71 2.06 2.06 96 1002.6
20260507210003 8 120 1.6 12.9 0.71 1.88 1.88 96 1003.3
20260507204602 7 169 3.2 14.5 0.71 1.73 1.73 96 1004.0
20260507203127 7 157 4.8 14.5 0.71 1.55 1.55 96 1004.2
20260507201556 7 153 4.8 8.0 0.66 1.35 1.35 96 1004.3
20260507200056 7 199 3.2 14.5 0.61 1.17 1.17 95 1004.9
20260507194606 7 211 8.0 14.5 0.48 0.99 0.99 95 1005.5
20260507193050 7 297 3.2 16.1 0.41 0.81 0.81 95 1005.0
20260507191549 7 109 6.4 19.3 0.30 0.69 0.69 95 1005.4
20260507190055 7 178 6.4 22.5 0.23 0.58 0.58 95 1005.3
20260507184544 7 132 6.4 27.4 0.18 0.48 0.48 95 1006.0
20260507183043 7 199 14.5 24.1 0.13 0.43 0.43 95 1005.9
20260507181542 7 116 14.5 30.6 0.08 0.38 0.38 95 1005.7
20260507180041 8 208 9.7 27.4 0.05 0.33 0.33 95 1005.7
20260507174544 8 128 16.1 30.6 0.00 0.30 0.30 95 1005.8
20260507173103 8 156 12.9 29.0 0.00 0.30 0.30 95 1006.2
20260507171539 8 157 11.3 24.1 0.00 0.30 0.30 95 1006.5
20260507170038 9 183 9.7 29.0 0.00 0.30 0.30 96 1006.7
20260507164534 8 138 11.3 27.4 0.00 0.30 0.30 96 1006.9
20260507163029 8 128 11.3 33.8 0.00 0.30 0.30 95 1007.5
20260507161529 8 120 9.7 25.7 0.00 0.30 0.30 95 1008.0
20260507160023 9 180 11.3 24.1 0.00 0.30 0.30 95 1008.3
20260507154519 8 188 16.1 37.0 0.03 0.30 0.30 95 1008.7
20260507153017 8 132 11.3 24.1 0.03 0.30 0.30 95 1009.1
20260507151515 8 145 11.3 27.4 0.05 0.30 0.30 95 1009.6
20260507150016 8 155 12.9 25.7 0.05 0.30 0.30 95 1009.8
20260507144507 8 108 12.9 33.8 0.10 0.28 0.28 95 1010.1
20260507143003 8 147 3.2 27.4 0.15 0.28 0.28 95 1010.4
20260507141611 8 171 12.9 25.7 0.15 0.25 0.25 95 1010.9
20260507140056 8 155 17.7 29.0 0.15 0.25 0.25 95 1010.9
20260507134555 8 158 11.3 29.0 0.05 0.18 0.18 95 1011.3
20260507133134 7 106 11.3 41.8 0.03 0.15 0.15 95 1011.5
20260507131549 8 148 16.1 25.7 0.00 0.13 0.13 95 1011.3
20260507130059 8 142 12.9 37.0 0.00 0.13 0.13 95 1011.3
20260507124549 8 168 14.5 27.4 0.00 0.13 0.13 95 1011.3
20260507123049 8 175 14.5 27.4 0.00 0.13 0.13 95 1011.7
20260507121544 8 131 8.0 30.6 0.00 0.13 0.13 95 1011.9
20260507120040 8 154 8.0 25.7 0.00 0.13 0.13 95 1012.4
20260507114549 8 145 17.7 37.0 0.00 0.13 0.13 95 1012.8
20260507113037 8 178 12.9 27.4 0.00 0.13 0.13 95 1012.7
20260507111534 8 129 11.3 25.7 0.00 0.13 0.13 95 1012.8
20260507110040 8 140 9.7 25.7 0.00 0.13 0.13 95 1012.7
20260507104531 8 168 8.0 22.5 0.00 0.13 0.13 96 1012.7
20260507103035 7 186 9.7 22.5 0.00 0.13 0.13 96 1012.9
20260507101534 7 153 4.8 29.0 0.00 0.13 0.13 95 1013.2
20260507100025 7 300 11.3 19.3 0.00 0.13 0.13 95 1013.4
20260507094523 7 150 6.4 16.1 0.00 0.13 0.13 95 1013.3
20260507093021 7 128 4.8 14.5 0.00 0.13 0.13 95 1013.1
20260507091521 7 173 6.4 24.1 0.03 0.13 0.13 95 1013.4
20260507090014 7 180 4.8 14.5 0.03 0.13 0.13 95 1013.6
20260507084513 7 215 1.6 22.5 0.05 0.13 0.13 94 1013.6
20260507083011 7 198 6.4 16.1 0.10 0.13 0.13 94 1013.8
20260507081508 8 202 8.0 16.1 0.10 0.10 0.10 94 1013.9
20260507080007 8 209 8.0 22.5 0.10 0.10 0.10 94 1013.9
20260507074504 8 152 9.7 25.7 0.05 0.05 0.05 94 1014.1
20260507073109 8 130 8.0 22.5 0.03 0.03 0.03 94 1014.4
20260507071559 8 168 8.0 19.3 0.00 0.00 0.00 93 1014.6
20260507070105 8 150 9.7 22.5 0.00 0.00 0.00 93 1014.7
20260507064558 8 153 14.5 33.8 0.00 0.00 0.00 94 1014.8
20260507063054 8 43 11.3 32.2 0.00 0.00 0.00 95 1015.1
20260507061551 8 165 8.0 20.9 0.00 0.00 0.00 95 1015.2
20260507060053 7 159 3.2 14.5 0.00 0.00 0.00 95 1015.3
20260507054545 7 201 4.8 14.5 0.00 0.00 0.00 95 1015.5
20260507053043 7 194 3.2 11.3 0.00 0.00 0.00 95 1015.8
20260507051540 7 214 4.8 19.3 0.00 0.00 0.00 95 1016.2
20260507050038 7 184 6.4 14.5 0.00 0.00 0.00 94 1016.6
20260507044547 8 193 4.8 17.7 0.00 0.00 0.00 95 1016.8
20260507043032 8 196 3.2 11.3 0.00 0.00 0.00 95 1016.9
20260507041528 8 202 3.2 12.9 0.00 0.00 0.00 94 1017.3
20260507040026 8 212 8.0 16.1 0.00 0.00 0.00 94 1017.5
20260507034522 8 180 4.8 17.7 0.00 0.00 0.00 94 1017.9
20260507033028 7 224 4.8 12.9 0.00 0.00 0.00 94 1018.1
20260507031519 8 193 8.0 19.3 0.00 0.00 0.00 94 1018.3
20260507030015 8 155 6.4 19.3 0.00 0.00 0.00 94 1018.6
20260507024514 8 211 8.0 24.1 0.00 0.00 0.00 94 1018.7